sat.trackr.live / text

‹ back to catalog

STARLINK-34234

NORAD 64248 · 2025-119R

PAYLOAD ACTIVE UNKNOWN

§ Identity

Operator
Country
US
Launch date
2025-06-03
Launch site
AFETR
Launch vehicle
Mass (kg)
RCS (m²)

Purposes: comms

External: N2YO · Heavens-Above · Gunter

§ Orbital elements

Epoch: 2026-09-20T09:02:31.098048Z

Period
94.27 min
Inclination
43.0041°
Eccentricity
0.0002528
Mean motion
15.27588057 rev/d
Perigee alt
481.3 km
Apogee alt
484.8 km
Semi-major
6,861.2 km
B*
4.6618e-4
RAAN
287.6046°
Arg perigee
283.0994°
Mean anomaly
76.9575°
Rev number
7,394

§ Raw data

STARLINK-342341 64248U 25119R   26263.37674882  .00012592  00000+0  46618-3 0  99922 64248  43.0041 287.6046 0002528 283.0994  76.9575 15.27588057 73943

JSON: /api/v1/satellites/64248 · /tle

For live sub-satellite position, see the globe view (requires WebGL).

§ Visibility from observer

Set your observer location to see the next 7 days of passes ≥ 10°. The values pass through the URL so the page stays shareable.

No JS? Fill the form by hand. The geolocation button needs JavaScript.